Weather Roundup
Issued by NWS

Home | Current Version | Previous Version | Graphics & Text | Print | Product List | Glossary Off
Versions: 1 2 3 4 5 6 7 8 9 10 11 12 13 14 15 16 17 18 19 20 21 22 23 24 25 26 27 28 29 30 31 32 33 34 35 36 37 38 39 40 41 42 43 44 45 46 47 48 49 50

000
NZUS93 KARX 171259
HRRWXR

CURRENT HOURLY OBSERVATIONS ACROSS
MUCH OF THE UPPER MISSISSIPPI VALLEY
NATIONAL WEATHER SERVICE LA CROSSE WI
700 AM CST WED DEC 17 2014


...SOUTHEAST MINNESOTA...


CITY           SKY/WX    TMP DP  RH WIND       PRES   REMARKS
ROCHESTER      LGT SNOW  13   9  84 NW10      30.26S FOG     WCI   0
ROCHESTER/MAYO CLOUDY    15  11  83 W10       30.26S WCI   2
WINONA         FLURRIES  19  14  79 W9        30.29R WCI   9
AUSTIN         FLURRIES  10   7  85 NW12      30.27F WCI  -4
ALBERT LEA     CLEAR      9   7  92 NW8       30.28F WCI  -4
DODGE CENTER   FLURRIES  10   9  92 CALM      30.26S
PRESTON        LGT SNOW  12   9  87 NW15      30.26S WCI  -4
OWATONNA       LGT SNOW   9   5  85 W5        30.29S WCI   0
FARIBAULT      FLURRIES   9   5  85 W5        30.30S WCI   0
$$

...ELSEWHERE IN MINNESOTA...


CITY           SKY/WX    TMP DP  RH WIND       PRES   REMARKS
MINNEAPOLIS    PTCLDY     9   5  84 W7        30.31S WCI  -2
INTNL FALLS    CLOUDY    13   8  81 N9        30.29R WCI   1
DULUTH         PTCLDY    12   6  77 N10       30.19R WCI  -1
RED WING       FLURRIES  12   9  85 W6        30.29S WCI   3
REDWOOD FALLS  PTCLDY     7   4  87 W10       30.34S WCI  -8
MANKATO        CLEAR      9   1  72 W8        30.32R WCI  -4
WORTHINGTON    PTCLDY     7   3  85 NW6       30.29S WCI  -3
FAIRMONT       PTCLDY    10   5  79 NW9       30.31R WCI  -2
$$

...SOUTHWEST WISCONSIN...


CITY           SKY/WX    TMP DP  RH WIND       PRES   REMARKS
LA CROSSE      CLOUDY    22  14  71 W13       30.26S WCI  10
PRAIRIE DU CHI CLOUDY    21  14  74 W14       30.28R WCI   8
BOSCOBEL       CLOUDY    23  14  68 NW7       30.27R WCI  15
LONE ROCK      NOT AVBL
PLATTEVILLE    CLOUDY    22  17  82 W10       30.25R WCI  11
FORT MC COY    CLOUDY    21  14  76 W8        30.25R WCI  11
VIROQUA        CLOUDY    20  17  88 W10       30.21S WCI   8
WIS DELLS      NOT AVBL
$$

...ELSEWHERE IN WISCONSIN...


CITY           SKY/WX    TMP DP  RH WIND       PRES   REMARKS
MILWAUKEE      CLOUDY    26  16  65 W10       30.18R WCI  16
MADISON        CLOUDY    23  15  71 NW10      30.21R WCI  12
GREEN BAY      CLOUDY    24  16  71 W13       30.15R WCI  12
EAU CLAIRE     NOT AVBL
BLACK RVR FLS  FLURRIES  19  13  75 W9G18     30.24R WCI   8
MEDFORD        FLURRIES  17  11  80 NW9       30.15S WCI   5
WAUSAU         CLOUDY    18  11  74 NW9       30.15R WCI   7
WIS RAPIDS     CLOUDY    21  13  71 W10       30.20R WCI  10
MARSHFIELD     FLURRIES  20  15  81 NW14      30.17R WCI   7
RICE LAKE      FLURRIES  17  12  80 NW8       30.25R WCI   6
$$

...NORTHEAST IOWA...


CITY           SKY/WX    TMP DP  RH WIND       PRES   REMARKS
DECORAH        FLURRIES  16  12  86 NW12      30.25S WCI   3
MASON CITY     PTCLDY    10   6  84 NW10      30.30F WCI  -4
CHARLES CITY   FLURRIES  12   9  85 NW9       30.28F WCI   0
OELWEIN        CLOUDY    14  12  92 W13       30.28F WCI   0
$$

...ELSEWHERE IN IOWA...


CITY           SKY/WX    TMP DP  RH WIND       PRES   REMARKS
DES MOINES     PTCLDY    15   9  76 NW7       30.35R WCI   5
IOWA CITY      CLOUDY    20  15  81 NW9       30.33S WCI   9
FORT DODGE     PTCLDY    10   7  85 W5        30.33R WCI   2
$$

...NORTHERN ILLINOIS...


CITY           SKY/WX    TMP DP  RH WIND       PRES   REMARKS
CHICAGO-OHARE  CLOUDY    25  18  74 W14       30.21R WCI  13
CHICAGO-MIDWAY CLOUDY    26  19  74 NW14      30.22S WCI  14
MOLINE         CLOUDY    22  15  75 W8        30.30S WCI  12
ROCKFORD       CLOUDY    24  16  71 W8        30.25S WCI  15
PEORIA         CLOUDY    21  14  74 NW8       30.32R WCI  11
$$

NOTE: "FAIR" INDICATES FEW OR NO CLOUDS BELOW 12,000 FEET WITH NO
SIGNIFICANT WEATHER AND/OR OBSTRUCTIONS TO VISIBILITY. WIND
SPEEDS ARE IN MILES-PER-HOUR.



USA.gov is the U.S. government's official web portal to all federal, state and local government web resources and services.